Lid_Strength_Index
17 16 16 14 13 12 11 11 10 9 9 9 9 9 9 8 8 8 8 9 10 6
17 16 16 14 13 12 11 11 10 10 10 10 10 10 10 9 10 10 9 10 10 9
17 17 16 15 14 13 11 10 10 11 11 10 10 10 10 9 9 10 9 9 9 10
18 17 17 16 14 13 11 11 11 11 11 11 11 10 10 10 9 9 9 9 9 9
18 17 17 16 15 14 13 11 12 11 12 12 12 12 11 10 10 10 10 10 10 10
19 18 18 16 14 12 12 12 12 12 13 12 12 12 11 11 11 11 11 11 10 10
20 19 18 17 15 14 12 12 12 12 13 13 13 13 12 11 12 12 11 12 11 11
21 19 19 18 17 16 15 13 13 13 12 12 13 13 14 13 13 13 13 13 12 12
21 20 18 17 17 16 15 14 14 14 13 13 12 12 12 13 14 15 14 15 15 14
19 19 18 17 16 16 16 15 15 15 15 14 13 12 13 14 16 16 16 17 17 17
19 18 18 19 19 18 16 16 16 16 15 15 14 14 14 15 16 17 17 17 17 17
19 19 19 19 19 18 18 18 17 16 16 16 15 13 14 15 16 17 17 16 16 16
20 20 21 20 20 19 18 18 18 18 18 17 16 14 14 16 16 17 17 17 16 14
20 21 20 21 21 20 21 20 21 20 19 19 19 17 14 15 17 18 18 18 18 18